Temperature
11 10 10 10 10 9 9 9 9 8 8 8 8 8 8 8 8 8 8 8 8 8 8 7 6 5 5 5 5 5 5 5 5 5 5 5 5 5 5 4 4 4 4
10 10 10 10 9 9 9 8 8 8 8 8 8 8 8 8 8 8 8 8 8 8 8 7 6 5 5 4 4 4 4 4 4 4 4 4 4 4 4 4 4 4 4
10 9 9 9 9 9 8 8 8 8 8 8 8 8 8 8 8 8 8 8 8 8 8 7 7 6 5 5 4 4 4 4 4 4 4 3 3 3 3 3 3 3 3
9 9 9 9 9 8 8 8 8 7 8 8 8 8 8 7 8 8 7 8 8 8 7 7 7 7 6 5 4 4 4 3 3 3 3 3 3 3 2 2 2 2 3
9 9 9 9 8 8 7 7 7 7 7 7 7 7 7 7 7 7 7 8 7 8 8 7 7 7 7 6 6 5 4 3 3 3 3 3 3 2 2 2 2 2 2
9 9 8 8 8 7 7 7 7 7 7 7 6 6 7 7 7 7 7 7 7 8 8 8 7 7 7 7 6 6 5 4 3 3 3 3 2 2 2 2 2 2 2
9 9 8 8 8 7 7 7 6 6 6 6 5 5 6 6 7 7 7 8 8 8 8 8 8 7 7 6 6 6 5 4 3 3 3 2 2 2 2 2 1 1 1
9 9 8 8 8 7 7 6 6 6 6 5 5 4 4 5 6 7 7 8 8 8 7 7 7 7 7 7 6 6 5 5 4 3 2 2 2 2 2 2 1 1 1
9 8 8 8 7 7 7 6 6 6 5 5 5 4 3 4 4 5 5 5 5 5 6 6 6 6 6 7 6 6 6 5 4 3 2 2 2 2 1 1 1 1 1
8 8 8 7 7 7 6 6 6 6 5 5 4 4 4 4 3 3 4 4 4 4 4 4 5 5 5 5 5 5 5 5 5 4 3 2 2 1 1 1 1 1 1
8 8 8 7 7 7 6 6 6 5 5 5 4 4 4 3 3 1 1 2 3 4 4 4 4 4 3 3 4 4 4 4 4 4 3 2 2 1 1 1 1 1 1
9 8 8 7 7 7 6 6 6 5 5 4 4 3 3 3 2 2 1 1 2 3 3 3 3 3 3 3 3 3 3 3 3 3 2 2 1 1 0 1 0 0 0
8 8 7 7 7 7 6 6 5 5 4 4 4 3 3 3 3 2 1 1 1 2 2 2 2 2 2 2 2 2 2 2 2 2 1 1 1 0 -0 -0 -0 -0 -0
8 7 7 7 7 6 6 6 5 5 4 4 3 3 3 3 2 2 2 1 -0 -0 0 1 1 2 2 2 2 1 1 1 1 0 0 -0 -0 -0 -1 -1 -1 -1 -1
7 7 7 6 6 6 6 5 5 5 4 4 3 3 3 2 2 2 1 1 -1 -2 -1 -0 0 1 1 1 1 0 0 0 -0 -1 -1 -1 -1 -2 -2 -2 -2 -2 -2
6 6 6 6 6 6 5 5 4 4 4 3 3 3 2 2 2 1 1 0 -0 -1 -2 -1 -1 -0 -0 -0 -0 -1 -1 -1 -1 -2 -2 -2 -2 -2 -2 -2 -2 -2 -2
6 6 6 5 5 5 5 4 4 4 3 3 3 2 2 2 1 1 0 -0 -1 -2 -3 -1 -2 -2 -2 -1 -1 -1 -1 -2 -2 -2 -3 -3 -3 -3 -3 -3 -3 -3 -3
5 5 5 5 5 4 4 4 3 3 3 2 2 2 1 1 1 0 -0 -1 -1 -2 -2 -2 -2 -3 -2 -2 -2 -2 -3 -3 -3 -3 -3 -4 -4 -4 -4 -3 -3 -3 -3
5 5 4 4 4 3 3 3 2 2 2 1 1 1 1 0 0 -0 -1 -1 -1 -2 -2 -3 -3 -3 -3 -3 -4 -3 -3 -3 -4 -4 -4 -4 -5 -5 -4 -4 -4 -4 -4
4 4 4 3 3 2 2 2 1 1 1 1 0 0 0 -0 -0 -1 -1 -1 -2 -2 -3 -4 -4 -4 -4 -4 -5 -5 -4 -4 -4 -4 -5 -5 -5 -5 -5 -5 -4 -4 -4
3 3 3 2 2 1 1 1 0 0 -0 -0 -0 -1 -1 -1 -1 -1 -2 -2 -2 -3 -3 -4 -4 -5 -5 -5 -5 -5 -5 -5 -5 -5 -6 -6 -6 -6 -5 -5 -5 -5 -5
2 2 2 1 1 0 0 -0 -1 -1 -1 -1 -1 -1 -1 -2 -2 -2 -2 -3 -3 -3 -3 -4 -4 -5 -5 -5 -5 -5 -6 -6 -7 -6 -6 -6 -6 -6 -5 -5 -5 -5 -5
1 1 1 0 -0 -0 -1 -1 -2 -2 -2 -2 -2 -2 -2 -2 -2 -2 -3 -3 -3 -3 -3 -3 -4 -4 -4 -4 -5 -5 -6 -6 -6 -6 -6 -6 -6 -6 -6 -5 -5 -5 -5
-0 -0 -1 -1 -1 -1 -2 -2 -3 -3 -3 -3 -3 -3 -3 -3 -3 -3 -3 -3 -3 -3 -3 -3 -4 -4 -4 -4 -5 -5 -5 -6 -6 -6 -7 -7 -6 -6 -6 -6 -5 -6 -6
-1 -2 -2 -2 -2 -2 -2 -3 -3 -3 -3 -3 -3 -3 -3 -3 -3 -3 -4 -4 -4 -4 -4 -4 -4 -4 -4 -5 -5 -5 -6 -7 -7 -7 -7 -7 -7 -6 -6 -6 -6 -6 -6
-2 -3 -3 -3 -3 -3 -3 -3 -4 -4 -4 -4 -3 -3 -3 -3 -4 -4 -4 -4 -4 -4 -4 -4 -4 -5 -5 -5 -5 -5 -6 -6 -7 -7 -7 -7 -7 -7 -7 -6 -6 -6 -6
Wind_Speed
11 12 11 12 11 10 9 8 8 8 8 9 10 11 12 14 15 16 17 16 16 16 16 15 14 14 13 13 12 11 11 10 10 9 8 8 8 7 7 7 7 7 7
15 13 12 12 13 14 14 13 12 11 10 10 11 13 15 16 17 18 20 19 19 19 19 18 18 17 17 16 15 15 14 13 13 12 11 11 10 10 9 9 9 8 8
18 16 13 13 16 17 16 13 12 10 8 9 9 13 15 17 18 20 21 21 21 21 21 21 21 21 20 19 19 18 17 16 15 15 14 13 13 12 11 11 11 10 10
21 18 14 14 17 17 15 10 7 5 6 7 7 8 12 14 17 19 20 21 21 21 23 24 24 24 23 23 22 21 20 19 18 17 17 16 15 14 14 13 13 12 12
21 19 16 16 17 14 13 10 7 6 8 9 9 8 8 11 15 18 18 21 22 23 23 25 27 27 26 25 25 24 23 22 21 20 19 18 17 17 16 15 15 14 14
22 21 17 16 15 9 9 8 9 8 7 8 9 9 9 9 11 13 18 20 22 24 25 25 25 25 28 28 27 26 26 25 23 22 22 21 20 19 18 17 17 17 16
21 21 16 13 13 11 13 12 9 9 8 4 3 6 8 12 15 14 16 16 19 24 24 24 23 23 23 28 29 29 28 27 26 25 24 23 22 21 20 20 19 19 18
21 21 17 12 11 11 12 11 10 7 6 7 6 3 6 6 7 13 12 12 12 15 17 22 22 23 22 23 26 29 30 29 29 27 26 25 24 23 22 22 21 20 20
20 21 20 17 12 12 13 15 14 12 11 8 9 7 5 7 5 5 7 10 10 9 10 15 19 22 23 23 24 28 31 32 31 30 28 27 26 25 24 23 23 22 22
19 21 21 19 14 13 15 16 15 14 12 11 7 11 12 7 6 6 4 5 7 9 10 11 15 20 23 23 25 27 30 32 32 32 31 29 28 27 26 25 24 24 24
14 18 19 17 15 14 16 16 14 15 14 15 11 7 11 11 10 10 12 7 6 8 10 11 11 15 20 22 23 27 31 32 32 32 32 31 30 29 28 27 26 25 24
7 11 15 14 14 14 16 17 16 15 16 16 15 11 9 7 9 12 17 13 11 8 10 11 11 12 18 20 24 28 31 31 32 32 32 31 31 30 29 28 27 26 25
6 9 10 11 13 14 14 14 14 16 17 17 18 16 15 15 9 9 14 14 11 7 8 9 11 13 17 20 22 29 31 32 32 33 33 32 31 31 30 29 28 27 26
8 9 8 10 12 13 14 14 14 16 15 17 19 18 16 15 14 14 12 11 13 11 8 10 6 11 15 19 23 29 25 31 33 33 33 33 32 32 31 30 29 28 27
8 8 8 9 11 12 13 13 13 15 15 16 17 18 17 15 14 14 13 13 13 14 14 9 9 10 14 18 24 23 22 29 32 32 33 33 33 32 31 30 29 28 27
8 9 9 9 10 11 11 12 12 14 15 15 14 16 18 15 14 13 14 14 14 16 16 6 8 7 11 12 22 22 22 29 31 32 32 32 32 32 31 31 30 29 29
9 9 9 9 10 10 10 10 12 13 15 16 15 16 19 16 15 14 14 14 15 15 21 16 8 9 12 12 12 15 20 20 21 29 31 31 32 31 31 31 31 30 30
9 9 10 10 11 11 10 11 13 13 14 16 16 16 18 15 18 15 15 16 16 16 18 23 10 8 12 12 12 11 12 16 17 27 30 31 31 31 31 31 31 31 30
10 10 10 11 12 12 12 12 13 14 14 15 15 16 17 16 18 15 16 16 15 16 16 18 16 8 9 8 10 10 13 11 13 22 27 30 31 31 32 32 32 31 30
11 11 11 12 12 12 12 13 13 13 14 14 14 15 15 16 17 17 16 17 15 15 15 16 16 10 8 6 7 10 11 10 12 13 19 22 25 29 31 32 31 30 30
12 12 12 13 12 11 11 13 12 13 14 14 14 14 15 19 22 19 15 13 14 14 14 15 16 12 11 7 9 9 13 10 11 11 10 11 11 12 13 24 28 29 29
12 12 12 13 14 13 21 26 20 13 13 13 14 13 14 18 22 27 29 27 22 18 17 16 16 16 13 13 11 11 11 10 10 8 11 13 11 12 10 11 23 27 27
12 13 12 13 15 17 26 28 27 18 13 12 12 12 12 12 19 14 20 26 25 29 27 19 19 18 14 13 13 14 13 11 13 7 8 10 9 12 10 16 25 27 28
13 13 14 14 16 18 27 28 28 18 13 12 12 12 13 13 13 14 13 14 15 16 18 15 14 14 13 11 13 15 14 13 9 7 9 8 7 10 11 10 23 26 27
14 13 14 14 16 19 26 28 27 12 11 12 12 12 13 13 20 23 15 14 15 14 19 24 23 20 22 23 18 12 12 11 11 10 10 8 6 8 9 10 15 25 26
15 15 15 14 15 17 24 27 26 11 12 12 10 11 18 18 21 22 14 13 15 13 11 11 14 16 14 16 22 16 13 12 7 7 9 9 7 6 6 7 10 10 14
Wind_Direction
188 193 199 205 210 214 215 218 224 230 236 242 245 246 248 249 251 253 257 261 266 269 269 268 266 264 261 260 259 259 259 260 262 265 268 272 276 282 287 293 298 302 306
194 195 201 207 213 216 219 221 225 230 239 245 250 249 250 252 252 252 254 256 260 264 266 267 266 265 263 261 259 257 256 257 259 260 262 265 268 272 277 282 285 289 294
200 200 204 211 217 218 220 223 229 234 243 246 249 251 253 253 252 253 253 253 254 258 261 263 265 265 264 262 260 258 256 256 257 258 259 260 262 265 268 272 277 280 283
205 203 209 218 218 215 214 214 216 221 234 238 246 249 249 250 251 252 252 250 250 251 253 256 259 261 262 261 260 258 256 255 255 255 257 257 259 261 264 266 269 272 275
210 209 218 222 213 210 213 220 213 212 231 240 245 248 246 248 250 251 249 247 245 245 246 250 253 255 257 258 259 258 257 255 254 254 255 256 256 258 260 263 265 267 270
213 215 224 222 209 207 217 217 225 217 226 238 254 260 251 246 245 245 247 248 245 242 241 241 244 248 252 253 255 256 256 255 254 253 253 254 255 257 258 260 262 264 266
216 217 227 222 212 219 226 221 220 226 233 215 249 279 266 246 245 245 242 242 242 241 238 237 237 239 244 249 251 253 253 254 253 252 252 252 253 255 256 258 259 261 262
221 222 226 228 219 224 229 223 213 218 223 189 194 242 294 296 246 239 237 236 239 239 236 237 235 234 236 239 244 249 251 253 253 252 252 251 252 253 255 256 257 258 260
227 227 228 229 225 222 230 229 221 219 230 213 201 200 229 250 295 259 233 233 232 229 233 235 234 235 235 236 239 245 247 248 250 251 251 251 251 252 253 254 255 256 257
229 230 232 231 230 228 231 232 226 223 225 231 214 221 229 215 238 289 259 241 234 230 229 232 234 233 233 234 236 240 243 244 246 247 249 250 251 251 253 253 253 254 256
232 233 233 233 234 233 233 234 230 224 224 231 224 211 230 239 233 247 269 256 240 229 227 227 228 229 231 231 234 237 241 241 242 243 245 247 249 250 252 253 254 255 256
243 237 236 236 237 237 237 236 235 230 229 230 231 223 213 213 216 226 248 258 258 238 224 227 226 226 229 230 232 238 241 241 241 242 243 245 247 249 251 253 255 256 257
261 250 238 239 240 240 241 239 237 236 234 232 233 234 232 232 223 223 241 256 259 251 229 226 221 222 226 229 233 240 243 243 242 242 242 244 245 247 249 251 254 255 257
268 264 247 244 244 244 244 241 240 240 239 236 237 235 237 236 231 229 234 246 264 265 239 232 216 218 224 226 230 238 242 244 244 244 243 244 244 245 246 248 251 253 254
277 275 265 257 253 250 248 245 245 243 241 239 239 237 238 239 235 234 233 230 241 264 268 224 211 214 219 224 231 235 234 241 245 246 245 244 244 245 246 247 248 250 252
282 282 278 268 263 258 254 250 250 250 246 244 241 240 239 240 238 234 233 232 231 242 263 240 210 201 211 223 231 232 232 239 245 247 247 246 245 245 246 247 247 249 250
289 284 280 276 272 267 261 256 253 251 250 250 245 242 242 238 239 236 233 233 233 234 252 260 214 205 207 220 231 230 229 234 240 245 247 248 246 246 246 246 247 248 249
288 284 282 278 275 271 265 259 261 258 253 252 249 246 246 242 239 238 235 234 234 231 241 258 248 213 217 218 223 227 229 232 232 241 247 248 248 248 248 248 248 248 249
289 286 282 278 276 273 270 265 262 261 257 255 252 248 248 243 244 240 236 237 236 236 236 249 255 226 223 218 223 231 234 234 232 239 245 248 249 250 250 249 247 248 249
288 287 283 279 275 273 271 269 266 264 261 258 254 251 249 244 244 242 240 238 236 236 236 243 252 242 227 205 210 225 235 231 236 235 240 243 247 250 250 249 248 249 250
286 283 284 283 279 276 273 270 265 262 260 260 256 251 249 249 248 247 244 239 233 236 236 241 247 246 233 211 217 217 233 232 232 227 232 238 242 245 246 250 250 251 250
288 285 284 284 284 284 288 290 287 272 262 260 261 256 252 257 259 259 256 249 236 231 232 235 241 241 236 224 220 221 226 229 238 211 223 234 228 236 237 237 246 249 251
290 289 286 284 285 287 293 294 292 288 275 268 263 263 262 258 261 251 257 259 256 248 237 230 236 238 234 222 218 222 221 222 229 203 198 230 224 232 233 237 242 244 246
292 291 290 287 287 290 295 296 296 292 281 273 266 263 262 260 255 255 248 248 250 254 254 248 241 238 231 223 216 220 222 228 233 219 202 227 221 230 232 230 242 244 246
296 292 290 289 289 293 297 298 297 287 281 275 269 263 262 260 264 267 259 251 251 249 255 254 250 245 237 231 221 217 218 223 231 225 208 219 224 229 232 234 238 243 247
296 296 293 290 288 290 294 298 298 289 284 281 274 265 269 270 270 269 260 253 255 251 240 247 252 255 249 240 233 217 211 217 219 220 201 205 214 208 237 232 229 234 243
Height
1554 1556 1557 1558 1559 1560 1560 1561 1561 1561 1561 1561 1560 1560 1560 1559 1559 1558 1558 1557 1557 1556 1556 1556 1556 1555 1555 1554 1554 1553 1552 1551 1551 1550 1550 1549 1548 1548 1547 1547 1546 1546 1545
1550 1552 1553 1554 1555 1556 1557 1557 1557 1557 1557 1556 1556 1556 1556 1555 1555 1555 1554 1554 1553 1552 1552 1552 1552 1552 1552 1551 1551 1550 1549 1548 1548 1547 1546 1546 1545 1545 1544 1544 1543 1543 1543
1546 1548 1549 1550 1551 1552 1553 1553 1552 1552 1551 1551 1551 1551 1550 1550 1550 1549 1549 1549 1548 1548 1547 1547 1547 1547 1547 1547 1547 1546 1546 1545 1544 1543 1543 1542 1541 1541 1541 1540 1540 1540 1539
1541 1542 1543 1544 1546 1547 1547 1547 1547 1546 1545 1545 1544 1544 1544 1544 1543 1543 1542 1542 1542 1542 1542 1541 1541 1541 1541 1541 1541 1541 1541 1540 1539 1539 1538 1538 1537 1537 1536 1536 1536 1536 1535
1536 1537 1537 1538 1540 1540 1540 1541 1540 1540 1539 1538 1538 1537 1536 1535 1535 1534 1534 1534 1534 1534 1534 1535 1534 1534 1534 1534 1534 1535 1535 1535 1534 1534 1533 1533 1532 1532 1532 1531 1531 1531 1531
1530 1531 1531 1532 1532 1533 1533 1533 1533 1532 1532 1532 1530 1527 1526 1525 1525 1524 1524 1524 1524 1525 1525 1526 1526 1526 1526 1526 1527 1527 1527 1528 1528 1528 1527 1527 1527 1527 1526 1526 1526 1526 1526
1523 1523 1524 1524 1524 1524 1524 1525 1525 1524 1523 1524 1522 1517 1515 1514 1512 1512 1513 1513 1513 1514 1514 1514 1515 1516 1516 1517 1517 1518 1519 1520 1520 1520 1520 1520 1520 1520 1520 1520 1520 1520 1521
1516 1516 1516 1516 1516 1515 1515 1516 1516 1515 1514 1516 1514 1511 1505 1501 1499 1500 1500 1500 1501 1502 1502 1503 1503 1504 1505 1506 1507 1508 1509 1510 1511 1512 1512 1513 1513 1513 1513 1513 1514 1514 1515
1509 1509 1508 1508 1507 1507 1506 1506 1506 1505 1504 1505 1505 1506 1501 1492 1491 1488 1488 1489 1490 1491 1492 1493 1493 1494 1495 1495 1496 1497 1498 1499 1500 1502 1503 1504 1505 1505 1506 1506 1506 1507 1508
1503 1502 1501 1500 1499 1498 1496 1496 1496 1495 1495 1493 1493 1493 1492 1490 1488 1479 1477 1478 1478 1479 1481 1482 1483 1484 1485 1485 1485 1486 1487 1488 1489 1491 1492 1494 1495 1496 1497 1498 1498 1499 1500
1497 1495 1494 1492 1490 1489 1487 1487 1486 1485 1484 1483 1482 1481 1480 1479 1478 1475 1466 1465 1467 1466 1468 1469 1470 1471 1472 1473 1473 1474 1476 1476 1477 1479 1481 1483 1485 1486 1488 1489 1490 1491 1492
1491 1489 1487 1485 1483 1481 1479 1477 1476 1475 1473 1472 1471 1470 1469 1467 1465 1464 1459 1454 1453 1452 1455 1455 1456 1458 1460 1460 1461 1463 1464 1464 1465 1467 1469 1471 1473 1475 1477 1479 1481 1482 1483
1485 1483 1481 1478 1475 1473 1471 1469 1467 1465 1463 1461 1460 1458 1457 1455 1455 1454 1451 1446 1442 1440 1440 1440 1441 1444 1447 1448 1449 1451 1451 1452 1453 1455 1457 1459 1461 1464 1466 1468 1470 1471 1473
1479 1477 1474 1471 1468 1466 1463 1460 1457 1455 1453 1451 1449 1447 1445 1443 1444 1442 1441 1440 1434 1429 1427 1425 1428 1431 1434 1435 1437 1439 1438 1440 1441 1443 1445 1447 1449 1452 1454 1456 1458 1460 1462
1473 1470 1467 1464 1461 1458 1455 1452 1448 1445 1443 1440 1438 1436 1434 1432 1432 1431 1430 1430 1429 1420 1412 1412 1416 1418 1422 1424 1425 1426 1426 1428 1430 1431 1433 1436 1438 1440 1443 1445 1447 1449 1451
1467 1464 1461 1457 1454 1450 1447 1443 1439 1436 1432 1429 1427 1424 1422 1421 1420 1419 1418 1418 1417 1413 1404 1397 1403 1407 1410 1411 1413 1414 1415 1417 1418 1419 1421 1424 1426 1429 1431 1434 1436 1438 1440
1461 1457 1453 1449 1445 1442 1438 1433 1429 1426 1422 1418 1416 1413 1410 1410 1408 1406 1406 1405 1404 1403 1396 1387 1393 1395 1398 1400 1402 1403 1404 1405 1406 1408 1410 1412 1415 1417 1420 1422 1424 1427 1429
1454 1450 1445 1441 1436 1432 1428 1424 1419 1415 1411 1407 1404 1402 1399 1398 1395 1395 1394 1392 1391 1390 1388 1380 1381 1384 1385 1388 1390 1392 1393 1393 1394 1396 1398 1400 1403 1405 1408 1410 1413 1415 1417
1446 1441 1436 1431 1426 1422 1418 1413 1408 1404 1400 1396 1393 1390 1388 1387 1383 1382 1381 1379 1379 1379 1377 1373 1369 1373 1375 1376 1378 1379 1381 1382 1382 1384 1386 1388 1391 1393 1396 1398 1401 1404 1406
1437 1432 1427 1421 1416 1411 1407 1402 1397 1392 1388 1384 1382 1379 1377 1375 1372 1371 1369 1367 1367 1367 1366 1364 1361 1362 1364 1364 1367 1367 1368 1369 1370 1373 1374 1376 1378 1381 1383 1386 1390 1392 1395
1428 1422 1416 1411 1406 1401 1396 1391 1386 1381 1376 1373 1370 1368 1366 1364 1361 1360 1357 1355 1356 1355 1354 1353 1351 1351 1352 1353 1353 1355 1356 1358 1359 1361 1363 1364 1367 1368 1371 1374 1378 1380 1383
1418 1412 1406 1400 1394 1390 1385 1381 1376 1370 1366 1362 1359 1356 1355 1353 1351 1349 1347 1346 1345 1343 1341 1341 1340 1339 1339 1342 1344 1345 1347 1348 1348 1350 1352 1353 1356 1356 1359 1363 1366 1369 1371
1407 1401 1395 1389 1383 1378 1375 1370 1366 1362 1357 1353 1349 1346 1344 1342 1340 1338 1336 1335 1335 1334 1333 1331 1328 1327 1330 1332 1335 1336 1336 1336 1338 1341 1343 1343 1346 1346 1349 1352 1355 1358 1360
1397 1391 1384 1379 1373 1368 1364 1359 1355 1351 1346 1343 1340 1337 1334 1331 1330 1328 1325 1323 1322 1322 1323 1322 1320 1319 1321 1323 1325 1326 1327 1329 1330 1333 1334 1334 1336 1338 1341 1342 1345 1347 1349
1387 1381 1375 1369 1363 1358 1354 1350 1346 1341 1336 1333 1330 1328 1325 1321 1320 1318 1316 1313 1311 1310 1311 1311 1311 1311 1312 1314 1316 1317 1318 1320 1320 1322 1325 1326 1327 1330 1331 1332 1335 1337 1339
1378 1372 1365 1361 1355 1349 1345 1341 1337 1333 1328 1324 1321 1318 1316 1313 1311 1309 1307 1304 1302 1301 1302 1301 1302 1302 1304 1305 1307 1308 1309 1311 1311 1313 1315 1318 1319 1322 1322 1322 1325 1327 1329